CZ-6A DEB, 61270

Orbit data source: Space-Track

CZ-6A DEB, 61270 is space debris in LEO originally from a launch on Tue, 06 Aug 2024 UTC launched from the Taiyaun Space Center, China (TSC). Debris objects in space refer to the collection of defunct objects orbiting the Earth. Examples of debris include non-operational satellites, rocket bodies, and fragments generated from explosions, collisions, or faulty payload assembly.

Loading next visibility...
Identifier
61270, 2024-140SF
Orbit
LEO
Country
Flag of CNCN / PRC
Related business
Manufacturer
SAST
Mission
Spacecraft
Bus & Motor
Unknown
Mass
Unknown
Launch date (UTC)
2024-08-06 (2 years ago)
Launch vehicle
Unknown
Launch site
Taiyaun Space Center, China (TSC)
Object type
Payload
Rocket body
Debris
Shape & HBR
Unknown shape, 0.1 m
Radar Cross Section
Small (<0.1 m²)

Expand to show TLE details & history
Last TLE update: 18 hours ago

TLE from 18 hours ago
0 CZ-6A DEB
1 61270U 24140SF  26171.22621183  .00000638  00000-0  39505-3 0  9991
2 61270  88.8227 263.2438 0141931 261.6976  96.8089 13.99336822 92677
Epoch: 2026-06-20T05:25Z
TLE epoch observation values (Epoch: 2026-06-20T05:25:44.702Z)
Latitude
0.00007°
Longitude
-86.63633°
Altitude
912.8 km
Speed
7.389 km/s
True Right ascension
17h 32m 58s
True Declination
0° 00' 00"
Sunlit
Object was in full shadow at epoch
Visualization orbit readout
Latitude
Unknown
Longitude
Unknown
Altitude
Unknown
Speed
Unknown
Apparent Right ascension
Unknown
Apparent Declination
Unknown
Sunlit
N/A
Visualization observer readout
Local Sidereal Time
10:19:00
Azimuth
Unknown
Elevation
Unknown
Doppler factor
Unknown
Orbital elements
Apogee altitude
996.275 km
Perigee altitude
789.873 km
Semi-major axis
7,271.211 km
Eccentricity
0.01419
Inclination
88.8227°
RAAN
263.2438°
Arg. of periapsis
261.6976°
True anomaly
98.42024°
Mean anomaly
96.8089°
Eccentric anomaly
97.61493°
Mean motion
3.50052 °/min
Orbital period
102.84 mins
BSTAR
0.00039505
Loading maneuver chart data...
Computing Atmospheric mass density...
Loading historical data...
Loading historical data...
Loading historical data...
Loading historical data...
Loading historical data...
Loading historical data...
Loading historical data...

Documentation

Showing up to 5 results
|